Rome, GA

12:45 PM EDT on June 26, 2017 (GMT -0400)
Russell

Weather History for KRMG - July, 2013

Change the Weather History Date:

Saturday, July 6, 2013

  Actual Average Record
Temperature  
Mean Temperature 74 °F 79 °F  
Max Temperature 77 °F 90 °F 100 °F (2002)
Min Temperature 70 °F 68 °F 60 °F (1997)
Cooling Degree Days 9 14  
Month to date cooling degree days 55 84  
Year to date cooling degree days 564 582  
Since 1 June cooling degree days 421 414  
Growing Degree Days 23 (Base 50)    
Moisture  
Dew Point 71 °F    
Average Humidity 91    
Maximum Humidity 100    
Minimum Humidity 82    
Precipitation  
Precipitation 1.69 in 0.17 in 1.69 in (2013)
Month to date precipitation 4.31 1.08  
Year to date precipitation 24.53 28.05  
Sea Level Pressure  
Sea Level Pressure 30.12 in    
Wind  
Wind Speed 3 mph (East)    
Max Wind Speed 14 mph    
Max Gust Speed 21 mph    
Visibility 7 miles    
Events Rain , Thunderstorm    
T = Trace of Precipitation, MM = Missing Value Source: NWS Daily Summary

Daily Weather History Graph

Daily Weather History Graph

Search for Another Location

Airport or City:

Trip Planner

Search our weather history database for the weather conditions in past years. The results will help you decide how hot, cold, wet, or windy it might be!

Date:

Astronomy

Jul. 06, 2013 Rise Set
Actual Time 6:34 AM EDT 8:56 PM EDT
Civil Twilight 6:05 AM EDT 9:25 PM EDT
Nautical Twilight 5:29 AM EDT 10:00 PM EDT
Astronomical Twilight 4:50 AM EDT 10:39 PM EDT
Moon 5:17 AM EDT (7/6) 7:39 PM EDT (7/6)
Length of Visible Light 15h 19m
Length of Day
14h 21m
Waning Crescent, 2% of the Moon is Illuminated
Jul 6
Waning Crescent
Jul 8
New
Jul 15
First Quarter
Jul 22
Full
Jul 29
Last Quarter

Hourly Weather History & Observations

Time (EDT) Temp. Dew Point Humidity Pressure Visibility Wind Dir Wind Speed Gust Speed Precip Events Conditions
12:17 AM 71.6 °F 69.8 °F 94% 30.13 in 10.0 mi SSE 4.6 mph - N/A   Mostly Cloudy
12:33 AM 71.6 °F 69.8 °F 94% 30.14 in 10.0 mi SSE 5.8 mph - N/A   Overcast
12:53 AM 71.1 °F 70.0 °F 96% 30.12 in 10.0 mi SSE 4.6 mph - N/A   Overcast
1:12 AM 71.6 °F 69.8 °F 94% 30.14 in 10.0 mi Calm Calm - N/A   Overcast
1:41 AM 71.6 °F 69.8 °F 94% 30.14 in 10.0 mi Calm Calm - N/A   Overcast
1:53 AM 71.1 °F 70.0 °F 96% 30.11 in 10.0 mi Calm Calm - N/A   Overcast
2:53 AM 71.1 °F 70.0 °F 96% 30.10 in 10.0 mi Calm Calm - N/A   Overcast
3:53 AM 71.1 °F 70.0 °F 96% 30.10 in 10.0 mi Calm Calm - 0.00 in Rain Light Rain
4:27 AM 71.6 °F 69.8 °F 94% 30.11 in 10.0 mi Calm Calm - 0.00 in   Overcast
4:53 AM 71.1 °F 70.0 °F 96% 30.10 in 10.0 mi Calm Calm - 0.00 in   Overcast
5:38 AM 69.8 °F 69.8 °F 100% 30.12 in 10.0 mi Calm Calm - N/A   Mostly Cloudy
5:53 AM 71.1 °F 70.0 °F 96% 30.10 in 10.0 mi Calm Calm - N/A   Mostly Cloudy
6:04 AM 71.6 °F 69.8 °F 94% 30.13 in 10.0 mi Calm Calm - N/A   Overcast
6:53 AM 71.1 °F 70.0 °F 96% 30.11 in 10.0 mi Calm Calm - 0.01 in Rain Light Rain
7:53 AM 71.1 °F 70.0 °F 96% 30.12 in 10.0 mi Calm Calm - 0.00 in   Overcast
8:13 AM 71.6 °F 71.6 °F 100% 30.14 in 10.0 mi Calm Calm - N/A   Overcast
8:53 AM 72.0 °F 71.1 °F 97% 30.12 in 10.0 mi SSE 3.5 mph - N/A   Overcast
9:53 AM 73.0 °F 71.1 °F 93% 30.13 in 10.0 mi SE 6.9 mph - N/A   Overcast
10:53 AM 75.9 °F 72.0 °F 87% 30.12 in 10.0 mi South 8.1 mph - N/A   Overcast
11:23 AM 77.0 °F 73.4 °F 89% 30.15 in 10.0 mi SSE 6.9 mph - N/A   Overcast
11:53 AM 77.0 °F 73.0 °F 88% 30.11 in 10.0 mi SSE 5.8 mph - N/A   Mostly Cloudy
12:37 PM 71.6 °F 69.8 °F 94% 30.14 in 2.5 mi SSW 10.4 mph 20.7 mph 0.00 in Rain Heavy Rain
12:44 PM 71.6 °F 69.8 °F 94% 30.14 in 1.0 mi SW 8.1 mph 17.3 mph 0.08 in Rain Rain
12:53 PM 71.1 °F 70.0 °F 96% 30.12 in 0.8 mi SSW 6.9 mph - 0.24 in Rain Heavy Rain
12:58 PM 71.6 °F 69.8 °F 94% 30.15 in 1.0 mi SW 5.8 mph - 0.04 in Rain Heavy Rain
1:18 PM 71.6 °F 71.6 °F 100% 30.15 in 2.0 mi SW 5.8 mph - 0.17 in Rain Rain
1:24 PM 71.6 °F 71.6 °F 100% 30.15 in 3.0 mi WSW 3.5 mph - 0.19 in Rain Rain
1:53 PM 73.0 °F 71.1 °F 93% 30.12 in 10.0 mi WSW 6.9 mph - 0.20 in   Overcast
2:04 PM 73.4 °F 71.6 °F 94% 30.13 in 10.0 mi West 8.1 mph - N/A   Overcast
2:16 PM 75.2 °F 71.6 °F 89% 30.13 in 10.0 mi WSW 4.6 mph - N/A   Mostly Cloudy
2:53 PM 77.0 °F 72.0 °F 84% 30.10 in 10.0 mi NW 5.8 mph - N/A   Mostly Cloudy
3:53 PM 75.0 °F 70.0 °F 84% 30.09 in 10.0 mi NNW 3.5 mph - 0.00 in   Overcast
4:05 PM 75.2 °F 69.8 °F 83% 30.11 in 10.0 mi WNW 4.6 mph - N/A Thunderstorm Overcast
4:18 PM 73.4 °F 71.6 °F 94% 30.12 in 1.0 mi NW 4.6 mph - 0.10 in Rain , Thunderstorm Heavy Rain
4:25 PM 73.4 °F 71.6 °F 94% 30.12 in 2.0 mi Variable 3.5 mph - 0.13 in Rain Rain
4:30 PM 71.6 °F 71.6 °F 100% 30.12 in 3.0 mi Calm Calm - 0.15 in Rain , Thunderstorm Rain
4:44 PM 71.6 °F 71.6 °F 100% 30.13 in 2.5 mi Calm Calm - 0.19 in Rain Rain
4:49 PM 71.6 °F 71.6 °F 100% 30.13 in 3.0 mi East 4.6 mph - 0.20 in Rain Rain
4:53 PM 72.0 °F 71.1 °F 97% 30.10 in 3.0 mi Calm Calm - 0.21 in Rain Rain
4:58 PM 71.6 °F 71.6 °F 100% 30.12 in 1.8 mi Calm Calm - 0.03 in Rain Rain
5:09 PM 71.6 °F 69.8 °F 94% 30.12 in 0.8 mi Calm Calm - 0.16 in Rain Heavy Rain
5:18 PM 71.6 °F 71.6 °F 100% 30.12 in 1.0 mi NW 4.6 mph - 0.25 in Rain Heavy Rain
5:31 PM 71.6 °F 71.6 °F 100% 30.12 in 2.5 mi NNW 3.5 mph - 0.31 in Rain Rain
5:42 PM 71.6 °F 71.6 °F 100% 30.12 in 3.0 mi NNW 3.5 mph - 0.35 in Rain Rain
5:53 PM 71.1 °F 71.1 °F 100% 30.09 in 3.0 mi NNW 4.6 mph - 0.38 in Rain Rain
6:15 PM 71.6 °F 71.6 °F 100% 30.12 in 10.0 mi Calm Calm - 0.04 in Rain Light Rain
6:27 PM 71.6 °F 71.6 °F 100% 30.12 in 4.0 mi East 8.1 mph - 0.06 in Rain Rain
6:39 PM 71.6 °F 71.6 °F 100% 30.13 in 2.5 mi Calm Calm - 0.12 in Rain Rain
6:53 PM 71.1 °F 70.0 °F 96% 30.10 in 2.5 mi North 3.5 mph - 0.18 in Rain Rain
7:03 PM 71.6 °F 71.6 °F 100% 30.12 in 2.0 mi Calm Calm - 0.04 in Rain Heavy Rain
7:10 PM 69.8 °F 69.8 °F 100% 30.12 in 1.5 mi Calm Calm - 0.11 in Rain Heavy Rain
7:19 PM 71.6 °F 71.6 °F 100% 30.11 in 3.0 mi NNE 3.5 mph - 0.16 in Rain Rain
7:53 PM 71.1 °F 71.1 °F 100% 30.09 in 7.0 mi NE 3.5 mph - 0.23 in Rain Rain
8:12 PM 71.6 °F 71.6 °F 100% 30.10 in 6.0 mi NNE 3.5 mph - 0.03 in Rain Light Rain
8:34 PM 71.6 °F 71.6 °F 100% 30.11 in 5.0 mi East 4.6 mph - 0.07 in Rain Rain
8:53 PM 71.1 °F 71.1 °F 100% 30.09 in 10.0 mi East 4.6 mph - 0.09 in Rain Light Rain
9:14 PM 71.6 °F 71.6 °F 100% 30.10 in 9.0 mi ENE 4.6 mph - 0.02 in Rain Light Rain
9:22 PM 71.6 °F 71.6 °F 100% 30.10 in 10.0 mi ENE 3.5 mph - 0.03 in Rain Light Rain
9:43 PM 71.6 °F 69.8 °F 94% 30.11 in 10.0 mi ENE 4.6 mph - 0.04 in Rain Light Rain
9:53 PM 70.0 °F 70.0 °F 100% 30.09 in 10.0 mi ENE 4.6 mph - 0.04 in Rain Light Rain
10:24 PM 69.8 °F 69.8 °F 100% 30.12 in 10.0 mi East 5.8 mph - 0.00 in Rain Light Rain
10:37 PM 69.8 °F 69.8 °F 100% 30.12 in 10.0 mi East 4.6 mph - 0.00 in Rain Light Rain
10:53 PM 70.0 °F 70.0 °F 100% 30.10 in 10.0 mi East 4.6 mph - 0.01 in Rain Light Rain
11:28 PM 69.8 °F 69.8 °F 100% 30.13 in 10.0 mi Calm Calm - 0.01 in Rain Light Rain
11:53 PM 70.0 °F 70.0 °F 100% 30.11 in 8.0 mi North 3.5 mph - 0.03 in Rain Light Rain